map of MSQ home
MSQ - Airport
Location
City:  Minsk, Minskaya (Minsk), Belarus
Name:Minsk National Airport
Old (Alt.):Minsk-2
ICAO:UMMS
IATA:MSQ

Details
Type:Airport (Aerodrome, Airfield)
Use:Public/Civil, International (customs port of entry)
Latitude:5352'57"N (53.882469)
Longitude:2801'51"E (28.030731)
Datum:WGS 1984
Elevation:670 ft (204 m)
Variation:7.88E (WMM2015 magnetic declination)
0.13 annual change
Runways:1
Longest:11946 × 197 ft (3641 × 60 m), paved

Time
Time Zone:UTC+2 (DST+3)

Weather
METAR:UMMS 031930Z 28004G07MPS 9999 -SHSN BKN038CB M05/M07 Q1013 R31/820336 NOSIG
TAF:UMMS 031714Z 0318/0418 31005G10MPS 5000 BR BKN004 BKN012
TEMPO 0318/0407 0500 +SHSN BLSN SCT003 BKN010CB
TEMPO 0407/0418 29006MPS 1200 SHSN BKN010CB

Related Locations
Nearby:
Farthest:CHT: 11130 mi / 17912 km
Waitangi [Tuuta], CIT, NZ

Find:

   beyond  
but within

Other Information
Maps:
NOTAMs:
Links:
Sources:

  
flag of Belarus
flag of Minskaya (Minsk)
  

Sectional Chart

Flight Planning
at skyvector.com

Satellite Image

Google Maps Satellite view

 

Copyright © 2004-2016 Karl L. Swartz. All rights reserved.
The Great Circle Mapper name and logo are trademarks of the Great Circle Mapper.
All other trademarks mentioned herein belong to their respective owners.
Please see credits for attibutions and further copyright information.

  Follow gcmap on Facebook Follow gcmap on Twitter Follow gcmap on Google+ GCmap on LinkedIn

hCard Microformat

Geo Microformat